Terug naar catalogus

STARLINK-4780

ActiefCommunicatieVLEO
NORAD 53848·PAYLOAD·🇺🇸 United States

Gelanceerd Sep 19, 2022 vanaf Cape Canaveral Space Force Station

Loading…

Volgende Passages (komende 24 uur)

TLE

VersSource: CelesTrak SupGP

Epoch: Sep 15, 2026, 01:52 UTC

1 53848C 22114AG  26258.07826389 -.00031309  00000+0 -19647-2 0  2588
2 53848  53.1582 163.0275 0001423  87.7453  18.8957 15.08826438    16

Volg STARLINK-4780 in realtime met AllMySat

Download on the App Store